FENGYUN 1C DEB, 29872

Orbit data source: Space-Track

FENGYUN 1C DEB, 29872 is space debris in SSO originally from a launch on Mon, 10 May 1999 UTC launched from the Taiyaun Space Center, China (TSC). Fengyun 1C debris stems from the Chinese weather satellite Fengyun-1C, which was intentionally destroyed by a Chinese anti-satellite missile in 2007. This event dramatically increased the amount of space debris, with thousands of trackable fragments posing hazards to satellites and human spaceflight. The Fengyun 1C debris cloud has become a focal point in discussions about space sustainability and the need for international regulations to prevent the creation of new debris.

Loading next visibility...
Identifier
29872, 1999-025FS
Orbit
SSO
Country
Flag of CNCN / PRC
Related business
Manufacturer
Unknown
Mission
Spacecraft
Bus & Motor
Unknown
Mass
Unknown
Launch date (UTC)
1999-05-10 (27 years ago)
Launch vehicle
Unknown
Launch site
Taiyaun Space Center, China (TSC)
Object type
Payload
Rocket body
Debris
Shape & HBR
Unknown shape, 0.1 m
Radar Cross Section
Small (<0.1 m²)

Expand to show TLE details & history
Last TLE update: 9 hours ago

TLE from 9 hours ago
0 FENGYUN 1C DEB
1 29872U 99025FS  25354.04555501  .00001585  00000-0  38473-3 0  9994
2 29872  98.3447   9.8241 0235016 291.5483  66.0805 14.38986864986979
Epoch: 2025-12-20T01:05Z
TLE epoch observation values (Epoch: 2025-12-20T01:05:35.952Z)
Latitude
-0.00011°
Longitude
-95.45368°
Altitude
700.096 km
Speed
7.54 km/s
True Right ascension
00h 39m 17s
True Declination
0° 00' 00"
Sunlit
Object was in daylight at epoch
Visualization orbit readout
Latitude
Unknown
Longitude
Unknown
Altitude
Unknown
Speed
Unknown
Apparent Right ascension
Unknown
Apparent Declination
Unknown
Sunlit
N/A
Visualization observer readout
Local Sidereal Time
09:08:01
Azimuth
Unknown
Elevation
Unknown
Doppler factor
Unknown
Orbital elements
Apogee altitude
926.695 km
Perigee altitude
591.228 km
Semi-major axis
7,137.098 km
Eccentricity
0.0235
Inclination
98.3447°
RAAN
9.8241°
Arg. of periapsis
291.5483°
True anomaly
68.57117°
Mean anomaly
66.0805°
Eccentric anomaly
67.32294°
Mean motion
3.59965 °/min
Orbital period
100.01 mins
BSTAR
0.00038473
Loading maneuver chart data...
Computing Atmospheric mass density...

Documentation

Showing up to 5 results
|